Location: Volkssternwarte_EN
(51.3230°N, 7.4010°E)
Time: 05:09:42
(UTC+02:00)

N. Korean satellite - Pass Details

Date: 27 September 2021
Orbit: 450 x 495 km, 97.3° (Epoch: 15 October)

Event Time Altitude Azimuth Distance (km) Brightness Sun altitude
Rises 06:07:08 0° 24° (NNE) 2,530 10.8 -12.8°
Reaches altitude 10° 06:09:29 10° 39° (NE) 1,655 10.1 -12.5°
Maximum altitude 06:12:24 23° 94° (E) 1,056 9.2 -12.0°
Drops below altitude 10° 06:15:20 10° 149° (SSE) 1,664 9.5 -11.6°
Sets 06:17:42 0° 164° (SSE) 2,547 10.3 -11.2°
